sat.trackr.live / text

‹ back to catalog

GLOBALSTAR M092

NORAD 38043 · 2011-080D

PAYLOAD ACTIVE UNKNOWN

§ Identity

Operator
Country
GLOB
Launch date
2011-12-28
Launch site
TYMSC
Launch vehicle
Mass (kg)
RCS (m²)
4.67

Purposes: comms

External: N2YO · Heavens-Above · Gunter

§ Orbital elements

Epoch: 2026-09-20T00:42:33.146784Z

Period
114.08 min
Inclination
52.0069°
Eccentricity
0.0000751
Mean motion
12.62266051 rev/d
Perigee alt
1,413.0 km
Apogee alt
1,414.2 km
Semi-major
7,791.7 km
B*
-2.0984e-5
RAAN
136.2132°
Arg perigee
75.9496°
Mean anomaly
64.5447°
Rev number
68,002

§ Raw data

GLOBALSTAR M0921 38043U 11080D   26263.02955031 -.00000108  00000+0 -20984-4 0  99992 38043  52.0069 136.2132 0000751  75.9496  64.5447 12.62266051680020

JSON: /api/v1/satellites/38043 · /tle

For live sub-satellite position, see the globe view (requires WebGL).

§ Visibility from observer

Set your observer location to see the next 7 days of passes ≥ 10°. The values pass through the URL so the page stays shareable.

No JS? Fill the form by hand. The geolocation button needs JavaScript.